Regional Weather Roundup
Issued by NWS Charleston, SC

Current Version | Previous Version | Text Only | Print | Product List | Glossary Off
Versions: 1 2 3 4 5 6 7 8 9 10 11 12 13 14 15 16 17 18 19 20 21 22 23 24 25 26 27 28 29 30 31 32 33 34 35 36 37 38 39 40 41 42 43 44 45 46 47 48 49 50

000
ASUS42 KCHS 031912
RWRCHS

REGIONAL WEATHER ROUNDUP
NATIONAL WEATHER SERVICE CHARLESTON SC
200 PM EST SAT DEC 03 2016

NOTE: "FAIR" INDICATES FEW OR NO CLOUDS BELOW 12,000 FEET WITH NO
SIGNIFICANT WEATHER AND/OR OBSTRUCTIONS TO VISIBILITY.

NOT ALL STATIONS ARE QUALITY CONTROLLED. USE DATA WITH CAUTION...
ESPECIALLY DEWPOINT OBSERVATIONS.

SCZ027-030-031-034>040-042>050-032000-
...SOUTHEAST SOUTH CAROLINA...

CITY           SKY/WX    TMP DP  RH WIND       PRES   REMARKS
N CHARLESTON   MOSUNNY   57  33  40 N6        30.22F
WATERFRONT PRK   N/A     55  39  54 NE6       30.21F
MOUNT PLEASANT NOT AVBL
JOHNS ISLAND   FAIR      55  36  47 N5        30.23S
PINOPOLIS        N/A     52  37  58 VRB2      30.15F
MONCKS CORNER  FAIR      55  32  41 N6        30.22F
SUMMERVILLE    FAIR      55  36  47 N6        30.23S
BEAUFORT MCAS  MOSUNNY   59  36  42 E6        30.22S
BEAUFORT ARPT  FAIR      57  36  44 E5        30.22S
HILTON HEAD IS MOSUNNY   63  39  42 NE7       30.23S
WALTERBORO     CLEAR     59  36  41 SE5       30.22F
ALLENDALE      FAIR      57  36  44 E6        30.22S

...SOUTHERN MIDLANDS AND PEE DEE...

CITY           SKY/WX    TMP DP  RH WIND       PRES   REMARKS
GEORGETOWN     NOT AVBL
KINGSTREE      FAIR      52  32  46 NW5       30.24F
ORANGEBURG     CLOUDY    53  33  46 NE6       30.23F
BARNWELL       NOT AVBL
AIKEN          FAIR      52  34  50 CALM      30.25F
MANNING        NOT AVBL
COLUMBIA       CLOUDY    56  33  42 N3        30.23F
SUMTER         CLOUDY    53  33  46 NE3       30.22F
FLORENCE       SUNNY     53  32  44 N6        30.24F
MYRTLE BEACH   SUNNY     52  30  43 N9        30.25
N MYRTLE BEACH CLOUDY    51  31  46 N8        30.22F

$$

GAZ063-065-086>088-099>101-113>116-118-119-134>141-150-032000-
...SOUTHEAST GEORGIA...

CITY           SKY/WX    TMP DP  RH WIND       PRES   REMARKS
SAVANNAH ARPT  PTSUNNY   63  32  31 SE7       30.21S
HUNTER AAF     SUNNY     62  41  45 E8        30.18F
FORT STEWART   PTSUNNY   62  36  36 E3        30.19S
STATESBORO     CLOUDY    63  37  37 E5        30.21F
SYLVANIA       PTCLDY   N/A N/A N/A E7        30.22F
CLAXTON        FAIR      63  37  39 NE6       30.21S

...CSRA...CENTRAL AND FAR SOUTHEAST GEORGIA...

CITY           SKY/WX    TMP DP  RH WIND       PRES   REMARKS
THOMSON        CLOUDY    58  36  43 CALM      30.26S
AUGUSTA-BUSH   CLOUDY    58  33  39 VRB3      30.21F
AUGUSTA-DANIEL CLOUDY    55  31  39 CALM      30.22F
SWAINSBORO     FAIR      61  32  33 SE5       30.21F
VIDALIA        MOSUNNY   63  41  45 SE5       30.20F
EASTMAN        FAIR      67  -3   6 E5        30.21F
HAZLEHURST     FAIR      64  36  36 SE3       30.17F
ALMA           CLOUDY    60  36  40 E6        30.18F
WAYCROSS       CLOUDY    64  40  41 E8        30.18F
JESUP          FAIR      63  43  48 E5        30.20F
BAXLEY         FAIR      63  41  45 SE6       30.18F
BRUNSWICK      CLOUDY    63  45  51 E12       30.20F
SAINT SIMONS   CLOUDY    65  41  41 NE10      30.19F

$$

SCZ027-028-034-036>038-045-046-048>050-GAZ119-141-032000-
...LAKE AND SUPPLEMENTAL COASTAL OBSERVATIONS...

STATION/POSITION TIME  TEMP    WIND        PRES    WAVE   SWELL
                       AIR SEA DIR/SP/G            HT/PER HT/PER/DIR
                 (UTC) (F)     (DEG/KT/KT) (MB)    (FT/S) (FT/S/D)
WINYAH BAY       1745   50      60/  5     1024.0
LAKE MURRAY      1820   51     230/  2/  4 1023.7F
ACE BASIN NERRS  1745   59      50/  3     1023.0
FORT PULASKI     1848   57 62   70/ 11/ 15 1023.3S
SAPELO ISLAND    1800   62      50/  8     1023.0

$$

ANZ835-935-AMZ111-154-330-350-352-354-370-450-454-472-032000-
...C-MAN AND BUOY OBSERVATIONS...

STATION/POSITION TIME  TEMP    WIND        PRES    WAVE   SWELL
                       AIR SEA DIR/SP/G            HT/PER HT/PER/DIR
                 (UTC) (F)     (DEG/KT/KT) (MB)    (FT/S) (FT/S/D)
BUOY 41004       1850   57 75   20/ 14/ 17 1022.2F   5/ 6   2/140/ 9
BUOY 41008       1850   62 65   50/ 12/ 14 1022.1F   3/ 5   2/110/ 9
FOLLY BEACH CMAN 1800   53      40/ 11/ 13 1024.5F
CAPERS NEARSHORE 1808   53 62   50/ 14/ 19 1023.6F
FRIPP NEARSHORE  1808   56 63   60/ 14/ 19 1023.0F


STATION/POSITION TIME  TEMP    WIND        PRES    WAVE   SWELL
                       AIR SEA DIR/SP/G            HT/PER HT/PER/DIR
                 (UTC) (F)     (DEG/KT/KT) (MB)    (FT/S) (FT/S/D)
5E ST. MARYS GA  1900      66                N/A     3/ 5
FRYING PAN BUOY  1850   52 73   20/ 14/ 17 1022.5F   4/ 6   2/110/ 8
BUOY 41025       1850   60 74  360/ 16/ 21 1021.6F   5/ 8   3/ 30/ 8
CAPE LOOKOUT NC  1800   50     360/ 10/ 13 1022.5F
BUOY 41002       1850   64 74  340/ 14/ 17 1019.6F   6/ 7   5/ 7
BUOY 41010       NOT AVBL
ST AUGUSTINE FL  1900   66 67   10/ 11/ 12 1021.8F


$$



USA.gov is the U.S. government's official web portal to all federal, state and local government web resources and services.